Theta_e
336 340 343 346 348 347 341 340 341 340 339 338 337 332 330 329 327 326 325 322 320 319 319 319 318 318 314 314 314 313 312 311 306 307 310 311 310 312 311 312 311 312 310
337 340 344 347 345 344 342 342 341 339 339 338 336 333 331 330 328 325 323 322 319 317 317 318 316 314 314 315 312 313 311 311 308 306 307 306 308 310 312 311 310 310 310
339 339 341 342 342 343 343 343 342 340 338 337 337 335 332 330 328 326 324 322 320 318 317 316 314 313 313 312 311 310 309 309 308 304 303 305 306 309 310 311 312 313 309
341 339 339 340 340 342 343 342 341 340 338 338 337 335 334 331 329 326 324 322 321 318 314 313 312 313 312 310 310 309 308 307 306 304 303 303 304 308 308 308 307 310 307
339 338 339 340 340 341 341 340 340 338 337 337 336 334 332 328 327 328 324 321 318 312 311 311 313 310 310 310 307 308 309 306 304 302 302 302 303 303 304 306 307 307 309
337 336 340 341 340 339 338 338 337 336 335 336 335 330 330 327 316 315 321 319 313 310 310 311 307 310 308 307 307 308 309 307 306 302 301 302 304 305 305 306 307 304 302
336 337 336 339 339 338 337 336 334 334 332 330 331 329 326 325 310 309 311 314 310 309 306 305 306 306 306 303 305 306 306 306 308 307 305 305 306 307 308 308 308 307 304
329 337 336 336 337 338 333 333 332 332 329 328 327 328 327 325 309 308 308 312 309 308 305 303 305 304 304 303 304 305 308 308 308 306 309 309 310 310 311 311 311 309 309
326 328 334 337 337 337 331 329 330 329 327 328 328 328 326 324 306 306 309 310 307 304 304 305 305 303 301 301 307 308 307 306 303 303 303 301 299 298 303 308 306 306 302
323 326 327 329 339 338 335 330 329 328 326 327 326 326 319 311 303 304 310 309 304 303 305 303 303 302 298 299 308 307 304 305 305 305 306 303 302 305 300 310 310 304 303
323 325 328 330 334 337 336 334 329 326 326 323 317 314 312 308 304 304 305 309 306 304 303 302 302 299 297 297 302 308 305 306 305 307 306 307 307 308 308 309 311 309 305
320 322 324 327 333 335 333 330 326 323 315 314 311 309 307 306 304 303 304 307 306 305 304 304 304 297 295 296 300 299 297 301 306 304 304 304 304 306 308 310 312 313 313
319 322 322 324 325 334 331 326 319 317 315 315 313 309 306 305 305 302 303 304 305 306 306 304 300 295 295 296 297 296 296 305 304 303 303 304 306 308 311 311 312 312 312
317 319 322 322 320 329 329 322 318 316 314 311 312 308 305 305 304 304 304 304 303 306 304 303 299 298 298 301 299 299 305 306 305 304 305 306 308 308 306 308 308 309 310
315 318 318 318 317 313 307 311 317 316 312 310 310 308 305 304 304 303 305 306 306 304 302 301 298 299 299 300 301 303 305 306 305 306 306 306 306 306 305 307 308 309 308
312 313 316 314 316 318 314 306 297 301 302 301 301 305 308 302 300 300 300 298 297 297 301 300 299 299 297 299 301 302 304 304 305 306 306 306 305 306 305 306 307 308 306
313 313 313 310 312 311 311 312 304 298 296 296 297 297 300 302 299 297 297 296 295 297 301 300 301 301 299 300 301 302 303 305 307 307 306 306 306 306 304 305 306 306 306
316 305 316 312 311 311 310 308 305 303 302 299 296 298 294 295 295 296 294 295 295 299 302 301 302 303 302 300 302 303 304 305 306 307 307 307 307 306 305 305 305 305 306
317 313 312 312 311 309 310 306 307 304 302 301 298 294 293 293 293 293 295 300 299 300 301 303 305 305 305 303 303 305 307 305 305 306 307 307 308 307 306 306 305 294 297
315 306 305 310 309 308 308 306 305 304 301 299 299 295 295 294 297 297 302 300 300 299 300 303 305 308 309 308 305 305 306 305 306 308 308 308 309 308 306 306 306 305 306
312 312 297 309 307 307 307 306 305 303 300 299 298 296 292 299 298 300 301 300 300 298 300 302 304 307 309 308 306 304 305 306 307 307 308 308 308 307 308 307 306 306 306
311 309 309 309 308 307 306 306 304 302 301 300 297 293 288 300 300 301 301 300 301 301 301 304 306 307 308 307 306 303 304 306 307 308 308 308 307 307 307 307 306 306 306
310 309 308 305 304 297 304 304 303 302 300 298 295 294 297 297 298 298 298 298 300 301 305 306 305 305 306 306 306 307 306 306 308 308 307 308 308 307 307 307 306 306 306
307 306 304 304 304 304 303 302 301 296 299 298 297 299 298 298 297 297 298 300 302 303 303 305 305 305 305 305 306 307 307 307 307 307 308 308 308 305 307 307 307 307 306
306 305 304 303 304 302 302 301 301 301 300 300 300 300 300 301 300 300 302 302 302 302 302 303 304 305 306 305 305 306 301 290 303 299 308 308 308 307 307 307 307 307 307
305 305 304 304 303 304 302 301 301 301 299 300 301 302 302 303 303 303 304 303 303 304 305 305 306 306 306 305 305 298 291 290 297 289 304 305 305 305 305 306 307 307 306
Wind_Speed
16 17 18 17 17 17 16 17 18 18 20 21 20 18 19 18 17 16 14 14 13 11 10 11 10 9 6 6 6 6 6 6 7 7 6 6 4 1 2 3 3 4 4
14 15 17 15 17 17 17 19 19 20 21 22 20 20 21 20 19 18 17 15 16 15 13 11 11 7 7 6 5 7 6 6 8 12 8 7 4 1 2 3 3 2 4
12 15 16 17 18 18 19 18 19 20 21 21 21 21 20 20 19 18 17 16 15 15 15 15 13 13 10 8 7 7 7 6 7 8 9 7 4 1 1 1 2 1 3
12 14 16 18 19 19 18 19 19 20 20 21 20 19 19 18 19 19 18 17 17 14 13 12 13 14 13 13 10 9 7 7 7 7 8 7 5 5 2 2 2 1 4
12 14 16 15 17 18 19 19 18 19 17 19 19 17 17 16 14 19 17 16 16 13 12 11 14 12 15 12 9 10 10 8 7 7 7 7 7 7 5 3 1 3 2
15 14 14 15 16 16 17 17 16 16 16 17 18 19 20 13 18 19 18 14 15 15 14 12 10 15 13 13 8 10 11 10 9 7 6 6 6 6 5 3 1 3 3
19 14 14 15 16 14 16 18 18 18 17 17 18 17 18 18 24 28 26 17 16 15 15 13 12 9 11 8 7 10 8 6 6 7 9 7 8 6 5 5 2 2 4
19 16 14 14 14 13 14 16 15 15 19 17 18 21 21 19 23 29 31 21 16 16 16 16 13 12 9 10 11 12 11 9 10 7 7 7 5 5 4 3 1 4 4
17 16 16 15 13 13 14 15 15 14 15 18 17 20 19 15 22 24 24 17 17 16 15 13 13 12 13 7 14 12 12 11 6 2 1 3 1 3 4 4 4 2 4
16 16 14 14 14 17 16 16 15 15 15 13 13 12 12 13 24 27 18 11 16 14 13 12 17 14 13 17 14 14 14 13 11 9 8 5 6 6 9 7 1 3 4
17 16 15 14 13 15 15 14 15 14 13 11 13 12 11 9 20 29 24 17 16 15 14 13 11 19 20 19 13 14 12 12 9 10 8 7 6 6 6 7 4 2 4
15 16 16 15 12 9 14 12 13 13 15 15 16 15 20 25 34 27 28 23 26 19 16 13 13 21 18 17 13 11 11 10 9 9 8 8 7 7 6 5 4 1 1
13 16 15 15 15 12 11 12 12 15 14 14 13 11 12 14 18 32 27 20 23 15 12 17 18 20 17 15 10 14 13 10 10 9 8 8 7 4 3 4 5 4 5
12 13 14 15 15 9 7 10 11 12 10 10 10 9 10 12 13 11 18 13 16 13 17 12 14 15 14 12 12 12 11 10 10 9 8 7 5 6 7 4 3 3 1
7 11 11 9 10 5 5 3 3 6 10 13 13 16 18 17 22 32 24 17 15 15 16 12 10 11 13 12 12 13 11 9 9 8 8 8 7 7 6 4 3 2 2
7 7 8 6 6 7 1 3 13 4 9 8 11 14 8 3 26 34 32 24 24 26 13 12 13 12 13 14 14 13 12 11 10 9 9 8 7 8 6 5 4 2 3
9 7 6 6 5 4 3 2 4 7 14 10 10 4 10 20 25 27 31 29 28 24 11 14 14 13 13 14 14 14 14 12 11 9 9 8 8 8 5 6 5 3 4
11 9 6 5 5 3 2 1 4 6 6 4 6 9 15 21 23 28 30 25 16 11 11 13 13 13 12 14 14 13 13 12 10 10 9 8 9 8 6 6 6 5 4
7 4 4 4 4 3 3 3 3 6 7 7 6 8 14 21 23 28 28 13 16 14 10 12 12 12 13 12 13 13 12 12 11 10 9 9 10 9 8 6 5 4 2
6 7 5 2 3 3 3 4 4 6 7 8 6 8 10 14 13 15 12 11 12 10 9 11 11 12 13 12 12 12 12 11 10 9 9 10 10 9 8 7 6 6 5
1 3 3 3 2 3 4 3 4 5 5 7 7 9 12 13 14 15 13 13 12 11 10 10 10 12 12 12 13 13 13 11 11 10 10 11 10 8 8 7 6 6 6
2 2 1 1 2 3 3 4 5 5 5 6 7 7 8 7 10 10 11 10 10 10 9 9 10 11 12 13 12 13 13 13 11 10 11 11 9 9 7 6 6 7 7
4 4 4 3 3 4 4 5 5 6 6 8 8 9 6 7 8 9 9 9 9 9 11 12 10 10 9 10 11 11 13 12 11 10 11 10 9 9 8 8 8 8 8
5 5 4 4 3 4 5 5 6 7 7 8 10 7 9 9 8 9 8 7 9 11 10 10 9 11 10 10 10 10 11 11 10 12 14 10 9 8 8 8 9 11 9
5 5 4 4 4 4 5 6 6 6 7 7 7 7 8 8 8 9 10 9 9 9 10 9 9 12 13 15 14 15 12 8 13 10 10 11 11 11 8 7 9 9 10
6 5 4 4 4 4 4 5 5 6 6 6 6 6 7 9 9 10 10 10 9 9 10 9 11 15 16 15 18 15 10 12 14 11 12 11 11 10 9 10 13 9 10
Wind_Direction
213 210 212 211 207 203 195 187 178 172 179 183 186 185 192 189 184 186 179 174 173 168 171 170 166 164 166 157 162 173 183 181 169 146 143 139 155 123 22 332 347 353 24
226 215 213 204 202 198 198 191 181 180 183 185 184 187 193 192 188 187 179 177 177 176 174 174 169 163 164 164 174 178 178 179 162 147 136 146 173 122 304 308 353 21 335
231 220 210 206 204 203 201 194 185 185 186 187 186 189 194 190 189 189 188 179 181 180 178 182 172 170 164 162 175 175 161 163 152 151 142 140 150 138 174 112 14 345 285
256 227 216 213 208 207 206 198 192 189 187 189 190 187 189 188 187 187 185 182 185 179 174 175 175 175 173 166 172 172 168 163 157 154 145 150 154 134 116 78 114 321 326
277 246 234 219 213 211 205 201 194 197 199 193 185 181 184 184 185 188 183 178 173 166 171 167 180 172 169 170 170 173 165 173 166 162 153 159 161 155 131 118 310 341 286
298 264 247 232 219 213 204 200 195 190 192 192 190 187 183 181 177 173 174 173 170 166 169 172 163 166 167 172 168 167 178 168 176 174 166 171 149 147 148 131 22 351 349
319 281 258 244 231 215 204 198 193 192 184 186 184 186 190 186 169 165 167 167 167 166 162 160 162 161 144 144 166 177 175 185 188 174 171 185 167 168 152 165 164 294 346
319 305 275 251 235 222 202 200 196 192 185 185 185 183 188 200 179 171 163 156 162 167 163 158 149 145 136 149 194 185 186 175 182 183 186 173 163 180 189 138 135 276 222
320 328 316 272 242 217 201 199 195 189 192 191 190 193 193 182 166 162 160 157 151 155 153 148 142 148 143 204 193 182 174 171 144 93 35 102 210 250 268 211 185 326 23
320 311 303 305 250 229 212 199 189 194 193 191 190 194 178 142 161 162 161 157 151 147 147 141 148 151 159 209 188 178 180 178 176 174 183 181 217 199 210 234 216 25 23
312 305 296 288 273 235 222 204 193 190 183 164 133 115 109 149 159 164 169 168 162 158 161 164 169 170 185 188 195 185 190 167 173 178 172 185 193 206 208 214 215 352 3
308 306 303 296 278 238 219 198 189 167 150 154 155 166 162 164 163 184 178 181 170 161 166 167 167 177 180 176 182 152 139 169 176 180 181 184 192 205 199 188 174 194 279
310 309 312 308 297 265 210 184 164 165 164 170 181 176 156 152 163 168 176 176 172 156 156 159 154 173 164 172 171 140 158 182 184 187 181 178 194 181 203 200 185 198 240
304 308 312 319 314 276 202 177 172 174 172 170 169 165 151 150 164 163 149 154 146 141 145 144 158 168 171 173 153 160 185 188 191 184 180 172 178 210 221 205 194 134 307
285 300 303 310 320 345 45 4 197 187 181 176 177 167 167 173 179 161 160 166 162 151 142 139 159 161 171 171 174 178 183 179 189 180 180 177 200 215 217 195 207 157 315
264 289 292 303 311 300 239 67 37 110 151 156 158 164 187 154 166 157 155 154 142 141 141 160 160 167 178 173 178 179 187 186 185 180 189 193 209 216 205 197 212 225 302
248 248 284 282 287 292 298 207 113 40 56 107 105 105 175 160 164 142 142 140 144 141 157 166 164 169 176 178 183 183 186 186 179 185 194 197 216 225 196 219 211 224 268
257 234 258 254 259 253 249 174 146 142 130 126 100 121 124 144 142 142 137 134 142 154 164 165 167 170 173 181 185 183 185 181 187 193 200 210 221 222 209 225 224 229 269
262 225 231 244 241 224 162 145 164 139 136 138 126 86 132 129 134 137 147 152 154 158 161 167 177 175 179 182 185 187 184 184 190 196 205 218 231 228 219 226 232 238 288
237 222 223 189 228 172 171 162 157 153 148 140 147 138 137 135 149 151 152 149 150 152 157 167 181 183 184 180 182 187 189 189 191 202 214 223 227 220 223 223 234 240 240
207 181 210 176 190 182 175 165 149 144 151 146 145 150 160 157 157 161 151 157 157 156 163 170 182 188 186 186 185 189 196 196 205 209 213 215 215 215 218 226 239 235 251
120 134 135 52 205 156 147 135 115 114 130 137 130 125 135 151 156 155 149 150 155 160 168 176 185 181 185 185 185 192 195 198 203 211 218 217 212 216 216 209 220 236 250
81 97 90 80 73 93 89 97 112 120 115 111 120 138 141 130 138 137 133 133 144 163 180 187 184 180 179 182 186 194 198 203 207 215 223 216 214 216 209 216 223 231 240
55 63 77 76 70 91 93 90 89 91 112 123 132 137 123 123 130 129 129 145 169 182 186 191 186 185 184 188 195 202 208 209 211 218 224 223 214 205 222 226 230 235 242
40 44 63 80 83 78 89 92 95 100 106 118 125 126 125 131 133 144 162 175 181 185 186 190 203 204 208 203 206 206 203 186 224 222 215 220 222 225 233 228 227 231 233
35 49 50 54 65 81 87 91 102 102 107 121 130 124 132 148 156 164 166 170 175 181 185 193 208 211 212 214 215 211 195 200 212 220 223 223 225 228 231 229 233 235 235